Temperature
30 31 31 32 32 31 31 31 31 31 31 30 30 30 29 28 27 27 26 25 24 23 22 21 20 20 19 19 19 18 18 18 18 17 17 17 17 17 16 16 16 16 16 16
31 31 32 32 31 31 31 31 31 31 30 30 30 30 29 28 27 27 26 25 24 23 22 21 21 20 20 19 19 18 18 18 18 18 17 17 17 17 17 16 17 16 16 16
31 32 32 31 31 31 31 31 31 30 30 30 30 30 29 29 27 27 26 26 25 24 23 22 21 20 20 19 19 19 18 18 18 18 17 17 17 17 17 16 16 16 16 16
31 32 31 31 31 31 31 31 31 30 30 31 30 30 30 29 28 28 27 26 26 25 23 22 21 21 20 19 19 19 18 18 18 18 17 17 17 17 17 16 16 16 16 16
31 31 31 31 31 31 31 31 31 31 31 31 31 30 30 30 29 29 28 27 26 25 24 23 22 21 20 20 19 19 19 18 18 18 18 17 17 17 17 16 16 16 16 16
32 32 32 32 31 31 31 30 30 31 31 30 30 30 30 31 30 30 29 27 26 25 24 23 22 21 20 20 19 19 19 18 18 18 18 17 17 17 17 16 16 16 16 16
31 31 32 31 31 31 31 31 30 30 30 30 30 30 30 30 30 30 29 28 26 25 24 23 22 21 21 20 20 19 19 18 18 18 18 17 17 17 17 16 16 16 16 16
30 31 32 32 32 31 31 31 30 29 30 31 30 30 31 30 29 29 28 27 26 25 24 23 23 22 21 20 20 19 19 19 18 18 18 18 17 17 17 16 16 16 16 16
31 31 32 32 32 32 31 31 32 31 31 30 31 31 30 30 29 29 28 27 26 25 24 24 23 22 21 20 20 19 19 19 18 18 18 18 17 17 17 16 16 16 16 16
32 31 31 31 31 31 32 32 32 31 29 29 30 30 30 29 29 29 28 27 26 25 24 24 23 22 22 21 20 19 19 19 18 18 18 18 17 17 17 16 16 16 16 16
32 31 31 31 31 31 31 31 31 31 31 30 29 30 31 30 30 29 29 27 26 26 25 24 23 22 21 21 20 19 19 19 18 18 18 17 17 17 17 16 16 16 16 16
31 31 31 31 32 31 32 32 31 30 29 30 30 30 31 30 30 29 28 27 26 25 24 24 23 22 21 21 20 20 19 19 19 18 18 18 17 17 17 16 16 16 16 16
30 30 29 30 30 30 31 31 32 32 31 30 30 30 29 29 29 28 27 26 25 24 24 23 22 22 21 20 20 20 19 19 18 18 18 18 17 17 17 16 16 16 16 16
29 30 30 30 31 31 30 31 31 31 30 30 30 30 30 29 29 28 26 25 25 24 23 23 22 21 20 20 20 19 19 19 18 18 18 17 17 17 16 16 16 16 16 16
29 30 30 30 31 31 31 31 30 30 30 30 30 30 30 29 29 27 26 25 24 24 23 22 22 21 20 20 19 19 19 19 18 18 18 17 17 16 16 16 16 16 16 15
29 29 29 29 30 30 30 30 30 30 30 31 30 30 30 29 27 26 25 25 24 23 23 22 21 20 20 20 19 19 19 19 18 18 18 17 17 16 16 16 16 16 15 15
28 28 28 29 29 29 29 30 30 30 30 30 30 30 29 28 27 26 25 24 24 23 22 21 21 20 20 20 19 19 19 18 18 18 17 17 17 16 16 16 16 15 15 15
27 27 28 28 28 27 29 30 30 30 30 30 29 29 28 27 26 24 24 23 23 22 22 21 21 20 20 20 20 19 19 18 18 17 17 17 16 16 16 16 16 16 15 15
27 26 27 28 27 28 28 28 29 28 28 28 28 28 27 26 25 25 23 22 22 22 21 21 21 21 20 20 19 19 18 18 17 17 17 17 16 16 16 15 15 15 15 15
26 26 27 27 26 27 28 28 27 28 27 27 27 26 26 26 27 26 23 22 22 21 20 20 20 20 19 19 19 18 18 18 17 17 16 16 16 16 15 15 15 15 15 15
25 25 26 26 26 28 27 26 27 26 26 25 25 24 24 25 25 23 22 21 21 20 20 20 19 19 19 18 18 18 18 17 17 16 16 16 16 16 15 15 15 15 15 14
26 26 25 26 26 26 25 26 26 25 24 23 23 23 23 23 23 22 21 20 20 20 19 19 19 18 18 18 18 17 17 17 16 16 16 16 16 15 15 15 15 15 15 14
25 25 26 26 25 24 23 23 23 22 22 22 22 22 22 22 22 21 20 20 19 19 19 18 18 18 17 17 17 17 17 16 16 16 16 15 15 15 15 15 15 15 14 14
23 22 23 24 24 23 22 22 22 21 21 21 21 21 21 21 21 20 20 19 19 19 18 18 18 17 17 17 17 16 16 16 16 16 15 15 15 15 15 15 15 14 14 14
23 22 23 23 23 23 22 21 21 21 21 21 21 21 21 20 20 20 19 19 19 18 18 18 18 17 17 16 16 16 16 16 16 15 15 15 15 15 15 15 14 14 14 13
22 22 23 23 22 22 22 20 20 20 20 20 20 20 20 20 19 19 19 18 18 18 17 17 17 17 17 16 16 16 16 15 15 15 15 15 15 15 15 14 14 14 14 13
Wind_Speed
7 8 7 5 5 6 6 6 4 2 1 4 4 2 4 6 7 7 6 6 6 6 6 7 6 6 5 5 4 4 4 3 3 3 3 2 2 1 1 0 1 1 1 1
8 9 7 5 5 6 7 6 4 1 1 3 3 4 4 6 8 7 7 7 6 7 7 7 7 6 6 5 5 5 4 4 4 3 2 1 1 1 1 1 0 0 1 2
12 5 3 6 7 7 7 7 5 3 2 4 5 4 5 6 7 7 8 7 7 7 8 8 8 7 6 6 6 4 4 4 4 3 3 2 2 1 1 1 1 0 1 1
11 8 7 8 8 8 6 4 5 5 6 3 5 3 3 6 7 9 9 9 8 8 9 9 8 7 7 7 6 5 5 4 4 4 3 3 3 2 2 1 0 0 1 1
9 7 8 9 7 7 4 2 4 6 7 6 5 6 2 5 6 8 9 9 9 9 9 9 8 8 7 7 6 6 5 5 4 4 3 3 3 2 1 1 1 1 0 1
11 7 7 7 5 5 4 4 5 7 8 7 4 6 2 3 3 5 7 8 9 9 9 9 8 8 7 7 7 6 6 5 5 4 4 3 3 2 2 2 1 2 1 1
12 11 8 6 6 7 9 8 6 6 6 4 2 5 2 1 2 3 5 7 8 9 9 10 9 9 8 8 7 6 6 6 5 5 4 4 3 3 3 3 2 2 1 1
12 11 10 9 9 7 9 10 7 6 6 3 4 4 0 2 2 3 4 6 8 9 9 10 10 9 9 8 8 7 7 6 6 5 4 3 3 3 2 2 2 1 1 1
10 8 7 7 7 8 7 8 8 8 8 7 3 2 3 4 4 5 6 6 7 9 9 10 9 9 9 9 8 7 7 6 5 5 5 4 3 2 2 1 2 1 1 1
10 8 8 7 7 6 8 7 6 7 7 8 5 5 2 5 6 6 7 7 7 8 9 9 9 9 9 8 8 7 7 6 5 5 4 4 3 3 2 2 1 1 1 1
12 11 9 9 10 10 8 8 7 7 7 8 7 2 2 2 4 6 7 7 7 8 8 8 8 9 9 8 8 8 7 6 5 5 5 4 3 3 3 2 2 1 1 1
11 10 11 11 7 6 10 10 10 9 8 8 9 3 4 2 4 5 6 7 7 7 8 8 8 9 9 8 8 8 7 6 6 5 5 5 4 3 3 2 2 2 1 1
8 9 11 11 10 9 10 11 11 11 9 9 9 3 6 5 4 5 6 7 7 7 7 7 8 8 8 8 7 7 7 6 6 6 5 5 4 4 3 2 2 2 1 1
6 11 13 13 8 8 10 11 11 11 10 10 9 6 4 5 5 6 6 7 7 7 7 7 7 8 7 7 7 6 6 6 6 6 5 5 4 3 3 3 2 2 1 1
6 11 12 11 8 8 10 11 11 13 12 11 9 7 5 4 5 6 7 7 7 7 7 7 7 7 7 7 7 7 6 6 6 6 5 4 4 3 3 3 2 2 1 1
6 8 10 12 11 10 12 12 13 13 13 12 10 8 2 3 5 6 6 7 7 7 7 7 7 7 7 7 7 7 7 6 6 6 5 4 4 4 3 3 2 2 2 1
6 7 9 12 10 11 15 12 12 12 11 11 11 6 4 5 6 6 6 6 7 7 7 7 7 6 7 7 7 7 7 6 6 5 5 5 4 4 4 3 2 2 2 2
7 9 8 9 9 15 9 4 7 10 9 7 5 2 3 4 4 5 4 5 6 6 6 6 6 6 6 7 7 6 7 6 6 5 5 5 4 4 4 3 3 2 2 2
8 8 8 10 13 13 7 5 5 8 7 4 4 4 3 4 6 5 4 4 4 5 5 5 5 6 6 6 6 7 7 6 6 5 5 5 4 4 4 4 3 3 2 2
6 8 10 10 12 13 5 1 3 6 8 1 3 4 4 5 7 4 4 4 4 4 4 4 5 5 6 6 6 6 6 6 6 5 5 4 4 4 3 3 3 2 2 3
8 8 12 13 12 8 1 1 4 8 2 2 1 3 4 5 2 3 4 4 4 4 4 5 5 5 6 6 6 6 6 5 5 5 4 4 4 4 3 2 2 2 2 2
9 8 10 11 13 7 3 1 2 2 3 1 0 2 2 2 2 4 4 4 5 5 5 5 5 5 5 5 6 6 5 4 4 5 4 4 4 3 3 2 2 2 2 3
6 4 4 5 3 3 3 2 2 2 2 1 1 0 1 2 3 4 5 4 4 5 5 5 5 5 5 5 5 5 4 4 4 5 4 4 3 3 2 3 2 3 3 2
4 2 3 3 3 1 1 1 1 2 2 1 0 0 1 2 3 4 4 4 4 4 4 4 5 5 4 4 4 4 5 5 4 4 4 4 3 3 3 2 2 2 2 2
3 3 4 5 3 2 1 1 1 1 1 1 1 0 1 1 2 3 4 4 4 4 4 4 4 5 5 5 4 4 5 5 4 4 3 3 3 2 2 2 1 1 1 1
5 5 6 4 2 3 2 2 2 2 1 1 0 0 0 1 2 3 3 4 4 4 4 4 4 4 4 5 5 4 4 4 4 3 3 3 2 2 2 2 2 2 2 3
Wind_Direction
209 232 237 251 263 292 294 294 303 339 334 258 257 242 185 186 197 193 187 184 187 189 175 169 170 171 168 168 169 174 182 184 191 192 206 194 193 195 219 248 354 325 309 307
220 233 245 266 259 262 266 269 277 274 257 268 269 256 204 195 201 202 196 192 188 181 173 172 173 173 172 170 176 177 183 189 195 194 206 202 185 193 188 198 132 287 302 296
233 245 234 249 242 249 257 266 278 286 252 239 257 228 195 188 200 201 203 199 192 186 182 177 178 179 177 174 181 180 180 183 194 196 187 166 163 178 184 190 176 266 301 318
238 245 243 247 244 251 258 266 261 252 255 262 268 286 184 183 197 202 201 199 194 185 181 178 177 179 178 177 177 174 173 175 181 191 194 198 199 200 207 219 171 209 269 309
226 227 241 248 251 253 267 259 247 255 263 269 250 277 172 187 205 200 197 196 193 182 178 177 176 175 174 172 170 166 166 169 174 185 187 207 212 219 212 203 193 262 263 288
243 238 245 248 243 230 198 212 227 238 251 261 265 277 266 186 199 190 184 189 188 180 175 174 173 170 171 168 169 166 164 170 174 181 186 200 206 222 225 229 240 249 251 277
225 225 216 215 217 205 220 237 247 244 239 259 215 263 299 115 177 187 179 178 179 179 178 177 175 173 172 171 171 170 168 172 176 182 190 202 214 217 224 247 241 271 275 268
219 216 207 212 230 231 228 247 265 284 292 288 205 261 117 127 148 167 168 167 171 177 179 178 176 174 173 173 172 171 174 174 172 178 187 197 213 227 233 247 272 267 292 321
225 217 184 205 228 239 229 240 269 275 278 282 266 243 200 179 175 169 164 162 168 174 176 178 174 174 173 172 171 172 171 172 174 176 180 185 202 222 225 222 241 258 295 297
238 234 206 189 203 223 258 254 248 261 277 282 274 263 240 181 183 174 169 166 164 170 173 174 173 173 171 169 167 168 167 169 175 174 182 181 189 198 209 222 234 294 310 329
236 235 216 204 221 223 209 225 244 262 274 280 287 295 83 178 186 182 175 167 164 168 170 170 171 170 169 170 167 167 166 168 171 174 175 174 178 185 193 199 219 234 258 274
222 237 237 226 221 254 240 240 237 248 256 264 279 283 100 133 172 171 167 160 161 162 166 168 168 168 170 174 171 169 168 171 172 169 171 170 173 181 194 195 213 222 233 250
203 229 231 225 213 211 231 239 247 256 260 262 270 263 129 136 155 161 162 161 162 163 166 167 167 170 174 175 173 173 172 172 169 166 171 168 177 184 195 198 206 210 218 247
223 233 239 245 244 222 224 227 236 248 253 260 264 267 193 174 171 168 166 167 168 167 172 172 170 172 174 173 171 173 175 172 169 168 172 171 183 189 193 192 199 203 211 222
227 236 240 252 261 251 243 241 231 240 256 267 273 265 248 206 178 172 171 169 168 169 174 174 173 168 171 169 168 170 174 174 172 172 177 175 179 183 185 182 188 195 208 213
233 241 239 241 243 244 248 247 242 242 250 256 259 259 236 169 163 164 173 178 179 177 175 172 170 166 169 169 170 170 174 172 170 172 175 172 174 179 183 187 190 194 203 220
224 229 240 243 235 243 244 243 242 242 246 254 256 251 170 174 174 176 181 184 186 181 178 176 175 175 174 172 170 172 174 173 173 176 175 171 173 178 187 189 182 200 218 225
230 235 241 246 236 245 250 247 249 248 247 250 253 239 201 189 172 169 182 187 187 183 182 180 179 178 177 174 170 169 168 172 176 179 180 179 182 181 181 187 192 205 220 229
225 228 240 244 244 245 230 227 236 240 240 258 248 228 197 175 172 167 165 176 188 186 184 184 182 176 170 172 169 167 169 170 175 178 184 182 188 187 187 191 200 208 217 224
206 222 236 239 250 253 233 200 243 244 232 263 249 217 196 192 215 171 148 163 165 161 162 164 164 160 160 166 166 170 172 174 178 181 183 178 187 191 196 199 207 208 213 223
203 215 230 238 246 246 3 287 204 228 241 15 262 212 210 213 268 120 134 138 141 148 149 148 153 158 158 162 167 173 174 179 180 175 174 176 180 185 186 191 199 209 216 218
227 227 227 238 244 236 62 176 228 355 24 26 2 206 214 187 135 134 134 136 137 143 144 148 153 155 155 162 169 169 172 171 169 169 169 170 181 190 175 183 198 211 221 214
239 266 260 253 259 65 65 68 41 22 3 358 333 272 177 167 156 147 142 140 138 139 144 149 152 152 157 166 174 172 166 164 167 169 172 176 182 188 189 193 200 214 217 234
206 258 250 239 200 140 91 64 20 6 357 349 353 160 192 183 167 151 147 143 141 139 143 147 151 154 156 163 173 171 163 167 172 173 179 183 191 195 187 209 215 230 242 253
253 226 235 236 231 229 177 341 330 336 349 21 49 132 205 186 179 162 154 149 145 144 146 150 156 160 162 162 165 165 163 171 181 184 190 198 197 192 190 188 195 232 226 253
238 244 249 250 234 262 270 333 322 307 315 321 300 212 186 175 178 166 155 148 147 149 149 153 159 162 161 161 160 160 166 176 190 197 202 209 204 196 208 191 185 150 201 158
Height
1507 1505 1502 1499 1499 1500 1500 1502 1503 1501 1500 1502 1502 1503 1506 1510 1512 1514 1516 1519 1522 1524 1526 1528 1529 1530 1531 1531 1532 1532 1533 1533 1533 1534 1535 1535 1536 1535 1535 1535 1534 1533 1533 1532
1504 1502 1498 1497 1499 1500 1500 1502 1501 1500 1500 1501 1501 1502 1502 1506 1510 1512 1514 1517 1519 1522 1524 1526 1527 1529 1530 1530 1531 1531 1532 1532 1532 1533 1533 1534 1534 1535 1535 1534 1534 1533 1532 1532
1501 1497 1497 1499 1499 1501 1499 1499 1499 1501 1501 1499 1500 1501 1500 1503 1507 1510 1512 1514 1517 1519 1521 1524 1526 1527 1528 1529 1530 1531 1531 1531 1532 1532 1533 1533 1533 1534 1534 1533 1533 1532 1532 1531
1496 1494 1497 1497 1496 1497 1499 1494 1497 1499 1501 1499 1500 1507 1499 1498 1503 1506 1508 1511 1514 1516 1519 1522 1524 1525 1527 1528 1529 1529 1529 1530 1531 1531 1532 1532 1533 1533 1533 1533 1533 1532 1531 1530
1494 1494 1495 1496 1494 1494 1496 1494 1496 1497 1498 1499 1497 1501 1497 1494 1498 1499 1503 1507 1510 1514 1517 1520 1522 1524 1526 1527 1528 1528 1529 1529 1530 1530 1530 1531 1532 1532 1532 1532 1531 1531 1531 1529
1490 1491 1492 1492 1492 1493 1495 1496 1497 1495 1494 1507 1499 1501 1500 1491 1493 1495 1499 1504 1508 1512 1515 1518 1520 1522 1524 1525 1526 1527 1528 1528 1529 1529 1530 1530 1530 1531 1531 1531 1531 1531 1530 1529
1493 1489 1489 1491 1493 1494 1494 1498 1507 1509 1507 1505 1494 1499 1496 1488 1490 1493 1497 1501 1506 1510 1513 1516 1518 1520 1522 1523 1525 1526 1527 1527 1528 1528 1529 1529 1529 1530 1530 1530 1530 1530 1529 1528
1494 1494 1486 1486 1488 1489 1489 1491 1507 1517 1512 1498 1495 1498 1489 1487 1491 1494 1497 1500 1504 1507 1511 1513 1516 1518 1520 1522 1523 1525 1525 1526 1527 1527 1528 1528 1528 1529 1530 1529 1529 1529 1529 1528
1486 1489 1481 1484 1485 1485 1488 1488 1483 1492 1496 1500 1494 1490 1487 1488 1490 1493 1496 1499 1502 1505 1509 1512 1514 1517 1519 1520 1522 1523 1524 1525 1526 1526 1527 1527 1527 1528 1528 1528 1528 1528 1527 1527
1478 1488 1481 1483 1485 1486 1483 1481 1486 1492 1509 1511 1499 1493 1489 1488 1488 1491 1494 1497 1500 1504 1507 1510 1513 1515 1517 1519 1520 1522 1522 1523 1524 1525 1526 1526 1526 1526 1526 1527 1527 1526 1525 1525
1476 1485 1484 1483 1485 1482 1486 1486 1487 1487 1490 1504 1507 1496 1479 1483 1485 1488 1492 1496 1499 1502 1505 1509 1511 1513 1515 1517 1519 1520 1521 1522 1523 1524 1524 1525 1525 1525 1525 1525 1525 1525 1524 1523
1477 1479 1483 1479 1475 1477 1477 1478 1482 1494 1496 1492 1495 1492 1478 1481 1484 1488 1491 1496 1499 1502 1505 1507 1510 1512 1514 1516 1517 1518 1519 1521 1521 1522 1523 1523 1524 1524 1524 1524 1524 1524 1523 1523
1477 1480 1491 1489 1485 1480 1479 1477 1475 1476 1482 1488 1494 1490 1480 1482 1485 1488 1492 1496 1499 1501 1504 1506 1508 1510 1512 1514 1515 1517 1518 1519 1520 1521 1521 1522 1523 1523 1523 1523 1523 1522 1522 1521
1477 1475 1481 1486 1478 1472 1478 1477 1477 1477 1484 1485 1484 1482 1479 1481 1484 1488 1492 1495 1497 1500 1502 1504 1506 1508 1510 1512 1513 1515 1516 1518 1519 1519 1520 1520 1521 1521 1522 1521 1521 1521 1520 1520
1475 1476 1473 1471 1469 1470 1473 1474 1475 1477 1476 1479 1477 1476 1476 1478 1483 1488 1491 1494 1496 1498 1501 1503 1505 1507 1508 1510 1511 1513 1514 1515 1516 1517 1518 1519 1519 1520 1520 1520 1519 1519 1519 1519
1475 1476 1475 1476 1471 1471 1474 1471 1471 1473 1472 1472 1473 1475 1473 1479 1484 1488 1491 1493 1495 1497 1499 1501 1503 1505 1506 1508 1509 1510 1512 1513 1514 1515 1516 1517 1517 1517 1517 1518 1518 1517 1517 1517
1474 1476 1479 1477 1472 1474 1478 1469 1469 1470 1468 1470 1473 1472 1475 1480 1484 1487 1490 1492 1494 1496 1498 1500 1501 1502 1504 1505 1506 1508 1510 1511 1512 1513 1514 1515 1515 1515 1516 1516 1516 1515 1515 1515
1476 1477 1475 1475 1480 1491 1470 1464 1465 1467 1467 1467 1469 1473 1476 1480 1484 1487 1489 1491 1492 1494 1496 1498 1499 1501 1502 1504 1505 1506 1508 1509 1510 1511 1511 1512 1513 1513 1513 1514 1513 1513 1513 1513
1473 1476 1476 1475 1479 1474 1468 1466 1467 1469 1471 1470 1471 1474 1478 1480 1483 1486 1488 1490 1492 1493 1495 1496 1497 1499 1500 1502 1503 1504 1506 1507 1508 1509 1510 1510 1511 1511 1512 1512 1511 1511 1511 1511
1473 1474 1475 1476 1481 1480 1467 1465 1468 1470 1474 1473 1474 1476 1478 1479 1478 1482 1487 1489 1490 1492 1493 1494 1496 1497 1498 1500 1501 1503 1504 1505 1506 1507 1508 1508 1509 1509 1510 1510 1509 1509 1509 1509
1473 1475 1474 1473 1475 1465 1466 1468 1469 1477 1476 1476 1476 1477 1478 1479 1479 1483 1486 1488 1489 1490 1492 1493 1494 1496 1496 1498 1499 1501 1502 1503 1504 1505 1506 1506 1506 1507 1508 1508 1507 1506 1506 1506
1469 1469 1472 1471 1475 1472 1469 1468 1471 1474 1476 1476 1477 1478 1479 1480 1482 1483 1485 1487 1488 1489 1490 1492 1493 1494 1495 1496 1497 1499 1500 1501 1502 1503 1503 1504 1504 1505 1505 1505 1504 1504 1504 1504
1467 1467 1463 1467 1470 1472 1472 1473 1476 1477 1477 1477 1478 1479 1480 1481 1482 1483 1485 1486 1487 1488 1489 1491 1492 1493 1494 1495 1496 1497 1498 1499 1500 1500 1501 1502 1503 1503 1503 1502 1502 1502 1501 1502
1469 1472 1470 1470 1469 1472 1474 1475 1476 1477 1478 1478 1479 1479 1480 1481 1482 1483 1484 1485 1486 1487 1489 1489 1490 1491 1492 1493 1494 1495 1496 1497 1498 1498 1499 1500 1500 1500 1500 1500 1500 1500 1499 1499
1469 1471 1470 1471 1471 1473 1474 1476 1476 1477 1477 1478 1478 1479 1479 1480 1481 1482 1483 1484 1485 1486 1487 1488 1489 1490 1491 1492 1493 1494 1494 1495 1496 1496 1497 1498 1498 1498 1498 1498 1497 1497 1497 1497
1470 1470 1470 1469 1472 1473 1475 1476 1476 1476 1477 1477 1477 1478 1479 1479 1480 1481 1482 1483 1484 1485 1486 1487 1488 1489 1490 1491 1491 1492 1493 1493 1494 1495 1495 1495 1496 1496 1496 1495 1495 1494 1494 1493